Hourly Data Report for October 31, 2016

All times are specified in Local Standard Time (LST). Add 1 hour to adjust for Daylight Saving Time where and when it is observed.

WINNIPEG A CS
MANITOBA

49°55'00.000" N
97°14'58.000" W
238.70 m
502S001
71849
XWG

Download Data

Hourly Data (October 2016)
Hourly Data Report for October 31, 2016
Temp Definition
°C
Dew Point Temp Definition
°C
Rel Hum Definition
%
Wind Dir Definition
10's deg

Wind Spd Definition
km/h
Visibility Definition
km
Stn Press Definition
kPa
Hmdx Definition


Wind Chill Definition


Weather Definition


TIME
00:00 4.1 2.6 90 18 29   98.18     LegendNANA
01:00 4.0 3.1 94 17 29   98.10     LegendNANA
02:00 4.2 3.4 95 17 28   97.99     LegendNANA
03:00 4.4 3.7 95 17 31   97.87     LegendNANA
04:00 4.5 4.1 97 17 25   97.73     LegendNANA
05:00 4.7 4.3 97 17 26   97.62     LegendNANA
06:00 4.8 4.4 97 18 22   97.63     LegendNANA
07:00 4.8 4.4 97 17 23   97.55     LegendNANA
08:00 4.8 4.4 98 18 20   97.54     LegendNANA
09:00 4.9 4.5 98 17 17   97.51     LegendNANA
10:00 4.9 4.5 97 14 16   97.35     LegendNANA
11:00 5.2 4.8 97 12 13   97.24     LegendNANA
12:00 5.1 4.8 98 12 23   97.08     LegendNANA
13:00 5.1 4.8 98 9 17   96.99     LegendNANA
14:00 5.2 4.8 98 9 10   97.01     LegendNANA
15:00 5.3 5.0 98 6 10   96.97     LegendNANA
16:00 5.1 4.9 98 3 13   96.91     LegendNANA
17:00 5.0 4.8 99 3 18   96.86     LegendNANA
18:00 5.0 4.8 99 2 18   96.91     LegendNANA
19:00 5.1 4.9 99 1 16   96.93     LegendNANA
20:00 5.2 5.0 99 1 16   96.95     LegendNANA
21:00 5.2 4.9 98 35 17   96.97     LegendNANA
22:00 5.0 4.6 97 34 17   97.03     LegendNANA
23:00 4.9 4.4 97 33 20   97.11     LegendNANA

Notes on Data Quality.

Legend

  • E = Estimated
  • M = Missing
  • NA = Not Available
  • ‡ = Partner data that is not subject to review by the National Climate Archives
Date modified: